Time,TemperatureF,DewpointF,PressureIn,WindDirection,WindDirectionDegrees,WindSpeedMPH,WindSpeedGustMPH,Humidity,HourlyPrecipIn,Conditions,Clouds,dailyrainin,SoftwareType,DateUTC
2013-12-27 00:02:00,43.1,36.4,30.32,NNW,340,1.0,1.0,77,0.00,,,0.00,Wunderground v.1.15,2013-12-27 06:02:00,
2013-12-27 00:08:00,43.0,36.3,30.32,NW,322,2.0,5.0,77,0.00,,,0.00,Wunderground v.1.15,2013-12-27 06:08:00,
2013-12-27 00:14:00,42.9,36.5,30.32,NNW,339,1.0,2.0,78,0.00,,,0.00,Wunderground v.1.15,2013-12-27 06:14:00,
2013-12-27 00:20:00,42.8,36.4,30.32,North,356,2.0,2.0,78,0.00,,,0.00,Wunderground v.1.15,2013-12-27 06:20:00,
2013-12-27 00:25:00,42.9,36.5,30.32,NNW,340,2.0,2.0,78,0.00,,,0.00,Wunderground v.1.15,2013-12-27 06:25:00,
2013-12-27 00:31:00,42.9,36.5,30.31,North,352,3.0,3.0,78,0.00,,,0.00,Wunderground v.1.15,2013-12-27 06:31:00,
2013-12-27 00:37:00,42.9,36.5,30.31,NW,324,2.0,4.0,78,0.00,,,0.00,Wunderground v.1.15,2013-12-27 06:37:00,
2013-12-27 00:43:00,42.8,36.4,30.31,NNE,13,3.0,3.0,78,0.00,,,0.00,Wunderground v.1.15,2013-12-27 06:43:00,
2013-12-27 00:49:00,42.7,36.3,30.31,NNE,20,6.0,6.0,78,0.00,,,0.00,Wunderground v.1.15,2013-12-27 06:49:00,
2013-12-27 00:55:00,42.6,36.5,30.31,North,5,2.0,4.0,79,0.00,,,0.00,Wunderground v.1.15,2013-12-27 06:55:00,
2013-12-27 01:01:00,42.4,36.3,30.31,NNW,347,2.0,3.0,79,0.00,,,0.00,Wunderground v.1.15,2013-12-27 07:01:00,
2013-12-27 01:07:00,42.2,36.5,30.31,NNE,16,4.0,4.0,80,0.00,,,0.00,Wunderground v.1.15,2013-12-27 07:07:00,
2013-12-27 01:12:00,42.2,36.5,30.31,North,10,2.0,3.0,80,0.00,,,0.00,Wunderground v.1.15,2013-12-27 07:12:00,
2013-12-27 01:18:00,42.2,36.5,30.31,NNE,13,4.0,4.0,80,0.00,,,0.00,Wunderground v.1.15,2013-12-27 07:18:00,
2013-12-27 01:24:00,42.0,36.3,30.30,North,354,3.0,3.0,80,0.00,,,0.00,Wunderground v.1.15,2013-12-27 07:24:00,
2013-12-27 01:30:00,42.0,36.3,30.30,NNE,20,3.0,3.0,80,0.00,,,0.00,Wunderground v.1.15,2013-12-27 07:30:00,
2013-12-27 01:36:00,41.8,36.4,30.30,NNW,335,3.0,3.0,81,0.00,,,0.00,Wunderground v.1.15,2013-12-27 07:36:00,
2013-12-27 01:42:00,41.7,36.3,30.30,NNW,347,3.0,3.0,81,0.00,,,0.00,Wunderground v.1.15,2013-12-27 07:42:00,
2013-12-27 01:48:00,41.6,36.2,30.31,NW,322,1.0,3.0,81,0.00,,,0.00,Wunderground v.1.15,2013-12-27 07:48:00,
2013-12-27 01:54:00,41.5,36.1,30.30,North,356,2.0,3.0,81,0.00,,,0.00,Wunderground v.1.15,2013-12-27 07:54:00,
2013-12-27 01:59:00,41.5,36.4,30.31,North,360,2.0,3.0,82,0.00,,,0.00,Wunderground v.1.15,2013-12-27 07:59:00,
2013-12-27 02:04:00,41.4,36.3,30.31,North,358,2.0,5.0,82,0.00,,,0.00,Wunderground v.1.15,2013-12-27 08:04:00,
2013-12-27 02:09:00,41.4,36.3,30.30,NE,40,5.0,6.0,82,0.00,,,0.00,Wunderground v.1.15,2013-12-27 08:09:00,
2013-12-27 02:14:00,41.4,36.3,30.30,NNW,346,3.0,4.0,82,0.00,,,0.00,Wunderground v.1.15,2013-12-27 08:14:00,
2013-12-27 02:19:00,41.4,36.3,30.31,NNE,26,3.0,5.0,82,0.00,,,0.00,Wunderground v.1.15,2013-12-27 08:19:00,
2013-12-27 02:24:00,41.4,36.3,30.31,NW,309,2.0,7.0,82,0.00,,,0.00,Wunderground v.1.15,2013-12-27 08:24:00,
2013-12-27 02:29:00,41.3,36.2,30.32,NNE,23,1.0,7.0,82,0.00,,,0.00,Wunderground v.1.15,2013-12-27 08:29:00,
2013-12-27 02:34:00,41.3,36.2,30.32,North,349,1.0,3.0,82,0.00,,,0.00,Wunderground v.1.15,2013-12-27 08:34:00,
2013-12-27 02:39:00,41.2,36.1,30.32,North,5,3.0,3.0,82,0.00,,,0.00,Wunderground v.1.15,2013-12-27 08:39:00,
2013-12-27 02:44:00,41.2,36.4,30.32,North,11,2.0,4.0,83,0.00,,,0.00,Wunderground v.1.15,2013-12-27 08:44:00,
2013-12-27 02:49:00,41.2,36.4,30.32,NNW,343,2.0,6.0,83,0.00,,,0.00,Wunderground v.1.15,2013-12-27 08:49:00,
2013-12-27 02:54:00,41.3,36.2,30.32,NW,311,2.0,7.0,82,0.00,,,0.00,Wunderground v.1.15,2013-12-27 08:54:00,
2013-12-27 02:59:00,41.2,36.1,30.33,NNE,19,6.0,7.0,82,0.00,,,0.00,Wunderground v.1.15,2013-12-27 08:59:00,
2013-12-27 03:04:00,41.3,36.5,30.32,NNE,18,3.0,6.0,83,0.00,,,0.00,Wunderground v.1.15,2013-12-27 09:04:00,
2013-12-27 03:09:00,41.3,36.2,30.32,North,5,3.0,6.0,82,0.00,,,0.00,Wunderground v.1.15,2013-12-27 09:09:00,
2013-12-27 03:14:00,41.4,36.3,30.32,NNW,347,5.0,9.0,82,0.00,,,0.00,Wunderground v.1.15,2013-12-27 09:14:00,
2013-12-27 03:19:00,41.5,36.4,30.32,NNW,332,2.0,9.0,82,0.00,,,0.00,Wunderground v.1.15,2013-12-27 09:19:00,
2013-12-27 03:24:00,41.5,36.4,30.32,North,355,7.0,7.0,82,0.00,,,0.00,Wunderground v.1.15,2013-12-27 09:24:00,
2013-12-27 03:29:00,41.6,36.5,30.32,NNW,333,2.0,7.0,82,0.00,,,0.00,Wunderground v.1.15,2013-12-27 09:29:00,
2013-12-27 03:34:00,41.6,36.5,30.32,NNW,327,5.0,9.0,82,0.00,,,0.00,Wunderground v.1.15,2013-12-27 09:34:00,
2013-12-27 03:39:00,41.7,36.3,30.32,NNE,13,4.0,9.0,81,0.00,,,0.00,Wunderground v.1.15,2013-12-27 09:39:00,
2013-12-27 03:44:00,41.7,36.3,30.32,NNE,30,5.0,7.0,81,0.00,,,0.00,Wunderground v.1.15,2013-12-27 09:44:00,
2013-12-27 03:49:00,41.8,36.4,30.32,NNE,20,4.0,8.0,81,0.00,,,0.00,Wunderground v.1.15,2013-12-27 09:49:00,
2013-12-27 03:54:00,41.8,36.4,30.32,NNW,345,2.0,8.0,81,0.00,,,0.00,Wunderground v.1.15,2013-12-27 09:54:00,
2013-12-27 03:59:00,41.8,36.4,30.32,North,11,5.0,8.0,81,0.00,,,0.00,Wunderground v.1.15,2013-12-27 09:59:00,
2013-12-27 04:04:00,41.9,36.5,30.32,North,11,3.0,10.0,81,0.00,,,0.00,Wunderground v.1.15,2013-12-27 10:04:00,
2013-12-27 04:09:00,41.9,36.2,30.32,NNW,334,1.0,10.0,80,0.00,,,0.00,Wunderground v.1.15,2013-12-27 10:09:00,
2013-12-27 04:14:00,41.9,36.2,30.32,North,352,6.0,6.0,80,0.00,,,0.00,Wunderground v.1.15,2013-12-27 10:14:00,
2013-12-27 04:19:00,41.9,36.2,30.32,NW,318,2.0,7.0,80,0.00,,,0.00,Wunderground v.1.15,2013-12-27 10:19:00,
2013-12-27 04:24:00,42.0,36.3,30.32,NNE,23,1.0,5.0,80,0.00,,,0.00,Wunderground v.1.15,2013-12-27 10:24:00,
2013-12-27 04:29:00,42.0,36.3,30.32,North,355,3.0,5.0,80,0.00,,,0.00,Wunderground v.1.15,2013-12-27 10:29:00,
2013-12-27 04:34:00,42.1,36.4,30.33,North,356,2.0,6.0,80,0.00,,,0.00,Wunderground v.1.15,2013-12-27 10:34:00,
2013-12-27 04:39:00,42.1,36.4,30.32,North,11,5.0,11.0,80,0.00,,,0.00,Wunderground v.1.15,2013-12-27 10:39:00,
2013-12-27 04:44:00,42.1,36.4,30.32,NNW,348,2.0,8.0,80,0.00,,,0.00,Wunderground v.1.15,2013-12-27 10:44:00,
2013-12-27 04:49:00,42.1,36.4,30.32,NNW,333,2.0,8.0,80,0.00,,,0.00,Wunderground v.1.15,2013-12-27 10:49:00,
2013-12-27 04:54:00,42.0,36.3,30.32,NNW,342,2.0,8.0,80,0.00,,,0.00,Wunderground v.1.15,2013-12-27 10:54:00,
2013-12-27 04:59:00,42.0,36.3,30.32,North,8,6.0,10.0,80,0.00,,,0.00,Wunderground v.1.15,2013-12-27 10:59:00,
2013-12-27 05:04:00,42.1,36.4,30.32,North,11,4.0,5.0,80,0.00,,,0.00,Wunderground v.1.15,2013-12-27 11:04:00,
2013-12-27 05:09:00,42.2,36.2,30.32,NNE,27,5.0,11.0,79,0.00,,,0.00,Wunderground v.1.15,2013-12-27 11:09:00,
2013-12-27 05:14:00,42.4,36.3,30.33,NE,43,6.0,11.0,79,0.00,,,0.00,Wunderground v.1.15,2013-12-27 11:14:00,
2013-12-27 05:19:00,42.6,36.2,30.32,NE,51,3.0,11.0,78,0.00,,,0.00,Wunderground v.1.15,2013-12-27 11:19:00,
2013-12-27 05:24:00,42.7,36.0,30.32,ENE,68,3.0,7.0,77,0.00,,,0.00,Wunderground v.1.15,2013-12-27 11:24:00,
2013-12-27 05:29:00,42.8,36.1,30.32,NNE,29,8.0,9.0,77,0.00,,,0.00,Wunderground v.1.15,2013-12-27 11:29:00,
2013-12-27 05:34:00,42.9,36.2,30.33,NE,41,3.0,9.0,77,0.00,,,0.00,Wunderground v.1.15,2013-12-27 11:34:00,
2013-12-27 05:39:00,42.9,36.2,30.33,ENE,75,2.0,9.0,77,0.00,,,0.00,Wunderground v.1.15,2013-12-27 11:39:00,
2013-12-27 05:44:00,42.9,36.2,30.33,NNW,338,2.0,8.0,77,0.00,,,0.00,Wunderground v.1.15,2013-12-27 11:44:00,
2013-12-27 05:49:00,42.9,35.9,30.34,North,359,3.0,8.0,76,0.00,,,0.00,Wunderground v.1.15,2013-12-27 11:49:00,
2013-12-27 05:54:00,42.9,36.2,30.34,North,352,5.0,7.0,77,0.00,,,0.00,Wunderground v.1.15,2013-12-27 11:54:00,
2013-12-27 05:59:00,43.0,36.0,30.34,NNE,25,5.0,7.0,76,0.00,,,0.00,Wunderground v.1.15,2013-12-27 11:59:00,
2013-12-27 06:04:00,43.0,36.0,30.34,NE,53,1.0,6.0,76,0.00,,,0.00,Wunderground v.1.15,2013-12-27 12:04:00,
2013-12-27 06:09:00,42.9,35.9,30.34,NNE,23,1.0,9.0,76,0.00,,,0.00,Wunderground v.1.15,2013-12-27 12:09:00,
2013-12-27 06:14:00,42.9,36.2,30.34,ENE,72,4.0,6.0,77,0.00,,,0.00,Wunderground v.1.15,2013-12-27 12:14:00,
2013-12-27 06:19:00,42.9,36.2,30.34,NNE,22,3.0,10.0,77,0.00,,,0.00,Wunderground v.1.15,2013-12-27 12:19:00,
2013-12-27 06:24:00,42.9,36.2,30.34,NNE,23,3.0,7.0,77,0.00,,,0.00,Wunderground v.1.15,2013-12-27 12:24:00,
2013-12-27 06:29:00,42.8,35.8,30.33,North,10,2.0,8.0,76,0.00,,,0.00,Wunderground v.1.15,2013-12-27 12:29:00,
2013-12-27 06:34:00,42.8,36.1,30.34,NNE,13,2.0,7.0,77,0.00,,,0.00,Wunderground v.1.15,2013-12-27 12:34:00,
2013-12-27 06:39:00,42.9,36.2,30.34,ENE,58,6.0,7.0,77,0.00,,,0.00,Wunderground v.1.15,2013-12-27 12:39:00,
2013-12-27 06:44:00,43.0,36.0,30.34,NE,47,2.0,7.0,76,0.00,,,0.00,Wunderground v.1.15,2013-12-27 12:44:00,
2013-12-27 06:49:00,42.9,35.9,30.35,NNE,27,3.0,3.0,76,0.00,,,0.00,Wunderground v.1.15,2013-12-27 12:49:00,
2013-12-27 06:54:00,43.0,36.0,30.35,NE,37,2.0,7.0,76,0.00,,,0.00,Wunderground v.1.15,2013-12-27 12:54:00,
2013-12-27 06:59:00,42.9,35.9,30.35,NNW,348,2.0,2.0,76,0.00,,,0.00,Wunderground v.1.15,2013-12-27 12:59:00,
2013-12-27 07:04:00,42.9,35.9,30.35,NNW,334,0.0,5.0,76,0.00,,,0.00,Wunderground v.1.15,2013-12-27 13:04:00,
2013-12-27 07:09:00,42.9,35.9,30.35,ENE,61,0.0,5.0,76,0.00,,,0.00,Wunderground v.1.15,2013-12-27 13:09:00,
2013-12-27 07:14:00,42.8,36.1,30.35,NNW,333,0.0,5.0,77,0.00,,,0.00,Wunderground v.1.15,2013-12-27 13:14:00,
2013-12-27 07:19:00,42.9,36.2,30.35,ENE,66,3.0,5.0,77,0.00,,,0.00,Wunderground v.1.15,2013-12-27 13:19:00,
2013-12-27 07:24:00,42.9,35.9,30.35,NNE,15,2.0,6.0,76,0.00,,,0.00,Wunderground v.1.15,2013-12-27 13:24:00,
2013-12-27 07:29:00,43.1,36.0,30.36,ENE,70,0.0,2.0,76,0.00,,,0.00,Wunderground v.1.15,2013-12-27 13:29:00,
2013-12-27 07:35:00,43.3,36.2,30.36,ENE,67,3.0,5.0,76,0.00,,,0.00,Wunderground v.1.15,2013-12-27 13:35:00,
2013-12-27 07:40:00,43.6,36.2,30.35,North,356,1.0,2.0,75,0.00,,,0.00,Wunderground v.1.15,2013-12-27 13:40:00,
2013-12-27 07:45:00,43.8,36.4,30.36,NW,321,2.0,5.0,75,0.00,,,0.00,Wunderground v.1.15,2013-12-27 13:45:00,
2013-12-27 07:50:00,44.1,36.7,30.35,North,1,1.0,2.0,75,0.00,,,0.00,Wunderground v.1.15,2013-12-27 13:50:00,
2013-12-27 07:55:00,44.3,36.5,30.35,NNE,19,0.0,8.0,74,0.00,,,0.00,Wunderground v.1.15,2013-12-27 13:55:00,
2013-12-27 08:00:00,44.6,36.5,30.36,NNE,25,3.0,4.0,73,0.00,,,0.00,Wunderground v.1.15,2013-12-27 14:00:00,
2013-12-27 08:05:00,44.9,36.8,30.36,NNE,19,3.0,7.0,73,0.00,,,0.00,Wunderground v.1.15,2013-12-27 14:05:00,
2013-12-27 08:10:00,45.1,37.0,30.36,NNE,32,1.0,5.0,73,0.00,,,0.00,Wunderground v.1.15,2013-12-27 14:10:00,
2013-12-27 08:15:00,45.3,36.8,30.36,NE,56,5.0,8.0,72,0.00,,,0.00,Wunderground v.1.15,2013-12-27 14:15:00,
2013-12-27 08:20:00,45.4,36.9,30.37,NE,37,2.0,3.0,72,0.00,,,0.00,Wunderground v.1.15,2013-12-27 14:20:00,
2013-12-27 08:25:00,45.5,37.0,30.37,NNE,33,8.0,8.0,72,0.00,,,0.00,Wunderground v.1.15,2013-12-27 14:25:00,
2013-12-27 08:30:00,45.7,37.2,30.37,NNE,20,2.0,6.0,72,0.00,,,0.00,Wunderground v.1.15,2013-12-27 14:30:00,
2013-12-27 08:35:00,45.9,37.0,30.37,North,1,2.0,6.0,71,0.00,,,0.00,Wunderground v.1.15,2013-12-27 14:35:00,
2013-12-27 08:40:00,46.0,37.5,30.37,NE,41,0.0,2.0,72,0.00,,,0.00,Wunderground v.1.15,2013-12-27 14:40:00,
2013-12-27 08:45:00,46.2,37.3,30.37,NNE,27,2.0,6.0,71,0.00,,,0.00,Wunderground v.1.15,2013-12-27 14:45:00,
2013-12-27 08:50:00,46.5,37.2,30.37,NW,314,2.0,6.0,70,0.00,,,0.00,Wunderground v.1.15,2013-12-27 14:50:00,
2013-12-27 08:55:00,46.8,37.5,30.38,North,8,4.0,6.0,70,0.00,,,0.00,Wunderground v.1.15,2013-12-27 14:55:00,
2013-12-27 09:00:00,47.0,37.4,30.38,North,359,5.0,8.0,69,0.00,,,0.00,Wunderground v.1.15,2013-12-27 15:00:00,
2013-12-27 09:05:00,47.2,37.5,30.37,NE,40,4.0,8.0,69,0.00,,,0.00,Wunderground v.1.15,2013-12-27 15:05:00,
2013-12-27 09:10:00,47.6,37.9,30.37,WNW,300,1.0,3.0,69,0.00,,,0.00,Wunderground v.1.15,2013-12-27 15:10:00,
2013-12-27 09:15:00,48.3,38.2,30.37,ENE,76,5.0,9.0,68,0.00,,,0.00,Wunderground v.1.15,2013-12-27 15:15:00,
2013-12-27 09:20:00,48.8,37.9,30.37,NE,50,1.0,6.0,66,0.00,,,0.00,Wunderground v.1.15,2013-12-27 15:20:00,
2013-12-27 09:25:00,49.3,38.0,30.38,NE,44,2.0,9.0,65,0.00,,,0.00,Wunderground v.1.15,2013-12-27 15:25:00,
2013-12-27 09:30:00,49.6,38.3,30.38,North,1,2.0,4.0,65,0.00,,,0.00,Wunderground v.1.15,2013-12-27 15:30:00,
2013-12-27 09:35:00,50.2,38.9,30.38,ENE,64,1.0,5.0,65,0.00,,,0.00,Wunderground v.1.15,2013-12-27 15:35:00,
2013-12-27 09:40:00,50.7,38.1,30.38,North,360,3.0,4.0,62,0.00,,,0.00,Wunderground v.1.15,2013-12-27 15:40:00,
2013-12-27 09:45:00,51.2,38.6,30.38,NNE,30,3.0,8.0,62,0.00,,,0.00,Wunderground v.1.15,2013-12-27 15:45:00,
2013-12-27 09:50:00,51.7,38.3,30.38,SE,126,3.0,4.0,60,0.00,,,0.00,Wunderground v.1.15,2013-12-27 15:50:00,
2013-12-27 09:55:00,52.0,39.0,30.38,NNE,29,3.0,6.0,61,0.00,,,0.00,Wunderground v.1.15,2013-12-27 15:55:00,
2013-12-27 10:00:00,52.1,37.8,30.37,NE,44,3.0,7.0,58,0.00,,,0.00,Wunderground v.1.15,2013-12-27 16:00:00,
2013-12-27 10:05:00,52.4,38.9,30.38,NNW,340,2.0,9.0,60,0.00,,,0.00,Wunderground v.1.15,2013-12-27 16:05:00,
2013-12-27 10:10:00,52.6,37.8,30.37,NE,43,4.0,5.0,57,0.00,,,0.00,Wunderground v.1.15,2013-12-27 16:10:00,
2013-12-27 10:15:00,52.4,36.7,30.37,East,81,7.0,11.0,55,0.00,,,0.00,Wunderground v.1.15,2013-12-27 16:15:00,
2013-12-27 10:20:00,52.6,37.3,30.37,West,274,2.0,7.0,56,0.00,,,0.00,Wunderground v.1.15,2013-12-27 16:20:00,
2013-12-27 10:25:00,52.7,37.4,30.37,East,80,6.0,7.0,56,0.00,,,0.00,Wunderground v.1.15,2013-12-27 16:25:00,
2013-12-27 10:30:00,52.9,37.6,30.36,NNE,20,4.0,5.0,56,0.00,,,0.00,Wunderground v.1.15,2013-12-27 16:30:00,
2013-12-27 10:35:00,53.0,37.7,30.37,NE,40,2.0,7.0,56,0.00,,,0.00,Wunderground v.1.15,2013-12-27 16:35:00,
2013-12-27 10:40:00,53.5,38.2,30.37,North,356,3.0,9.0,56,0.00,,,0.00,Wunderground v.1.15,2013-12-27 16:40:00,
2013-12-27 10:45:00,53.4,38.1,30.36,ENE,73,8.0,9.0,56,0.00,,,0.00,Wunderground v.1.15,2013-12-27 16:45:00,
2013-12-27 10:50:00,53.4,38.1,30.36,NE,56,3.0,3.0,56,0.00,,,0.00,Wunderground v.1.15,2013-12-27 16:50:00,
2013-12-27 10:56:00,53.7,37.9,30.36,NNE,27,3.0,9.0,55,0.00,,,0.00,Wunderground v.1.15,2013-12-27 16:56:00,
2013-12-27 11:01:00,54.2,37.9,30.36,ENE,69,5.0,5.0,54,0.00,,,0.00,Wunderground v.1.15,2013-12-27 17:01:00,
2013-12-27 11:06:00,54.6,36.8,30.36,North,358,2.0,13.0,51,0.00,,,0.00,Wunderground v.1.15,2013-12-27 17:06:00,
2013-12-27 11:11:00,54.8,37.0,30.36,WNW,300,2.0,9.0,51,0.00,,,0.00,Wunderground v.1.15,2013-12-27 17:11:00,
2013-12-27 11:16:00,55.4,37.6,30.36,ESE,104,5.0,9.0,51,0.00,,,0.00,Wunderground v.1.15,2013-12-27 17:16:00,
2013-12-27 11:21:00,56.0,39.1,30.36,NE,41,1.0,4.0,53,0.00,,,0.00,Wunderground v.1.15,2013-12-27 17:21:00,
2013-12-27 11:26:00,55.7,37.3,30.36,NE,46,5.0,9.0,50,0.00,,,0.00,Wunderground v.1.15,2013-12-27 17:26:00,
2013-12-27 11:31:00,55.8,37.9,30.36,ESE,102,3.0,7.0,51,0.00,,,0.00,Wunderground v.1.15,2013-12-27 17:31:00,
2013-12-27 11:36:00,55.8,38.4,30.36,NNE,18,0.0,9.0,52,0.00,,,0.00,Wunderground v.1.15,2013-12-27 17:36:00,
2013-12-27 11:41:00,56.0,39.6,30.36,ENE,61,2.0,3.0,54,0.00,,,0.00,Wunderground v.1.15,2013-12-27 17:41:00,
2013-12-27 11:46:00,56.0,39.1,30.35,ENE,61,5.0,7.0,53,0.00,,,0.00,Wunderground v.1.15,2013-12-27 17:46:00,
2013-12-27 11:51:00,56.1,38.7,30.35,North,352,2.0,5.0,52,0.00,,,0.00,Wunderground v.1.15,2013-12-27 17:51:00,
2013-12-27 11:56:00,56.2,39.3,30.35,NW,313,4.0,7.0,53,0.00,,,0.00,Wunderground v.1.15,2013-12-27 17:56:00,
2013-12-27 12:01:00,56.5,39.6,30.34,NNW,330,3.0,4.0,53,0.00,,,0.00,Wunderground v.1.15,2013-12-27 18:01:00,
2013-12-27 12:06:00,56.7,39.3,30.35,NE,36,2.0,6.0,52,0.00,,,0.00,Wunderground v.1.15,2013-12-27 18:06:00,
2013-12-27 12:11:00,57.0,39.5,30.34,ENE,58,5.0,6.0,52,0.00,,,0.00,Wunderground v.1.15,2013-12-27 18:11:00,
2013-12-27 12:16:00,57.2,38.7,30.34,NW,309,2.0,6.0,50,0.00,,,0.00,Wunderground v.1.15,2013-12-27 18:16:00,
2013-12-27 12:21:00,58.1,41.0,30.33,North,11,3.0,3.0,53,0.00,,,0.00,Wunderground v.1.15,2013-12-27 18:21:00,
2013-12-27 12:26:00,58.4,39.8,30.33,NE,46,3.0,11.0,50,0.00,,,0.00,Wunderground v.1.15,2013-12-27 18:26:00,
2013-12-27 12:31:00,58.6,40.0,30.32,NNW,347,2.0,5.0,50,0.00,,,0.00,Wunderground v.1.15,2013-12-27 18:31:00,
2013-12-27 12:36:00,58.6,39.0,30.31,North,6,4.0,10.0,48,0.00,,,0.00,Wunderground v.1.15,2013-12-27 18:36:00,
2013-12-27 12:41:00,58.6,39.5,30.31,North,11,6.0,6.0,49,0.00,,,0.00,Wunderground v.1.15,2013-12-27 18:41:00,
2013-12-27 12:46:00,58.7,38.5,30.31,North,11,2.0,10.0,47,0.00,,,0.00,Wunderground v.1.15,2013-12-27 18:46:00,
2013-12-27 12:51:00,58.7,39.0,30.30,NE,39,5.0,5.0,48,0.00,,,0.00,Wunderground v.1.15,2013-12-27 18:51:00,
2013-12-27 12:56:00,58.5,38.9,30.30,NE,55,3.0,8.0,48,0.00,,,0.00,Wunderground v.1.15,2013-12-27 18:56:00,
2013-12-27 13:01:00,58.3,38.1,30.29,NNE,27,2.0,10.0,47,0.00,,,0.00,Wunderground v.1.15,2013-12-27 19:01:00,
2013-12-27 13:06:00,58.3,38.7,30.30,North,5,7.0,10.0,48,0.00,,,0.00,Wunderground v.1.15,2013-12-27 19:06:00,
2013-12-27 13:11:00,58.2,38.6,30.29,North,1,3.0,6.0,48,0.00,,,0.00,Wunderground v.1.15,2013-12-27 19:11:00,
2013-12-27 13:16:00,58.4,39.3,30.29,NE,41,6.0,10.0,49,0.00,,,0.00,Wunderground v.1.15,2013-12-27 19:16:00,
2013-12-27 13:21:00,58.6,39.0,30.28,NW,315,4.0,6.0,48,0.00,,,0.00,Wunderground v.1.15,2013-12-27 19:21:00,
2013-12-27 13:26:00,58.7,38.5,30.27,ENE,77,6.0,12.0,47,0.00,,,0.00,Wunderground v.1.15,2013-12-27 19:26:00,
2013-12-27 13:31:00,58.9,38.7,30.27,NNW,335,5.0,8.0,47,0.00,,,0.00,Wunderground v.1.15,2013-12-27 19:31:00,
2013-12-27 13:36:00,59.0,39.9,30.27,NNE,13,5.0,8.0,49,0.00,,,0.00,Wunderground v.1.15,2013-12-27 19:36:00,
2013-12-27 13:41:00,59.0,39.9,30.26,SSE,163,1.0,7.0,49,0.00,,,0.00,Wunderground v.1.15,2013-12-27 19:41:00,
2013-12-27 13:46:00,59.2,40.0,30.27,ENE,65,8.0,8.0,49,0.00,,,0.00,Wunderground v.1.15,2013-12-27 19:46:00,
2013-12-27 13:51:00,59.1,38.9,30.27,North,360,4.0,7.0,47,0.00,,,0.00,Wunderground v.1.15,2013-12-27 19:51:00,
2013-12-27 13:56:00,59.0,38.8,30.27,NE,50,2.0,8.0,47,0.00,,,0.00,Wunderground v.1.15,2013-12-27 19:56:00,
2013-12-27 14:01:00,59.0,39.3,30.27,ENE,60,3.0,4.0,48,0.00,,,0.00,Wunderground v.1.15,2013-12-27 20:01:00,
2013-12-27 14:06:00,59.0,38.8,30.27,NNE,31,8.0,9.0,47,0.00,,,0.00,Wunderground v.1.15,2013-12-27 20:06:00,
2013-12-27 14:11:00,59.1,38.9,30.28,ENE,74,5.0,7.0,47,0.00,,,0.00,Wunderground v.1.15,2013-12-27 20:11:00,
2013-12-27 14:16:00,59.1,38.9,30.28,North,8,3.0,10.0,47,0.00,,,0.00,Wunderground v.1.15,2013-12-27 20:16:00,
2013-12-27 14:21:00,59.3,38.5,30.28,NW,320,3.0,6.0,46,0.00,,,0.00,Wunderground v.1.15,2013-12-27 20:21:00,
2013-12-27 14:26:00,59.3,37.9,30.28,North,356,4.0,6.0,45,0.00,,,0.00,Wunderground v.1.15,2013-12-27 20:26:00,
2013-12-27 14:31:00,59.1,38.3,30.28,NE,49,2.0,4.0,46,0.00,,,0.00,Wunderground v.1.15,2013-12-27 20:31:00,
2013-12-27 14:36:00,59.2,38.4,30.27,ENE,75,4.0,7.0,46,0.00,,,0.00,Wunderground v.1.15,2013-12-27 20:36:00,
2013-12-27 14:41:00,59.0,38.2,30.27,East,98,3.0,6.0,46,0.00,,,0.00,Wunderground v.1.15,2013-12-27 20:41:00,
2013-12-27 14:46:00,58.9,37.6,30.27,NE,46,4.0,9.0,45,0.00,,,0.00,Wunderground v.1.15,2013-12-27 20:46:00,
2013-12-27 14:51:00,58.8,38.1,30.26,NNE,20,0.0,5.0,46,0.00,,,0.00,Wunderground v.1.15,2013-12-27 20:51:00,
2013-12-27 14:56:00,58.7,38.5,30.27,NE,56,1.0,11.0,47,0.00,,,0.00,Wunderground v.1.15,2013-12-27 20:56:00,
2013-12-27 15:01:00,58.6,38.4,30.26,North,359,4.0,8.0,47,0.00,,,0.00,Wunderground v.1.15,2013-12-27 21:01:00,
2013-12-27 15:06:00,58.4,38.2,30.26,North,352,4.0,8.0,47,0.00,,,0.00,Wunderground v.1.15,2013-12-27 21:06:00,
2013-12-27 15:11:00,58.4,38.8,30.27,NE,47,3.0,4.0,48,0.00,,,0.00,Wunderground v.1.15,2013-12-27 21:11:00,
2013-12-27 15:16:00,58.4,39.3,30.27,NE,50,3.0,6.0,49,0.00,,,0.00,Wunderground v.1.15,2013-12-27 21:16:00,
2013-12-27 15:21:00,58.8,39.7,30.27,NW,305,2.0,3.0,49,0.00,,,0.00,Wunderground v.1.15,2013-12-27 21:21:00,
2013-12-27 15:26:00,59.1,38.9,30.26,NE,56,4.0,8.0,47,0.00,,,0.00,Wunderground v.1.15,2013-12-27 21:26:00,
2013-12-27 15:31:00,59.1,38.9,30.26,NE,39,5.0,9.0,47,0.00,,,0.00,Wunderground v.1.15,2013-12-27 21:31:00,
2013-12-27 15:36:00,58.9,38.7,30.26,NNE,33,3.0,12.0,47,0.00,,,0.00,Wunderground v.1.15,2013-12-27 21:36:00,
2013-12-27 15:41:00,58.5,38.9,30.26,NE,41,6.0,6.0,48,0.00,,,0.00,Wunderground v.1.15,2013-12-27 21:41:00,
2013-12-27 15:46:00,58.1,38.5,30.26,NNE,16,6.0,8.0,48,0.00,,,0.00,Wunderground v.1.15,2013-12-27 21:46:00,
2013-12-27 15:51:00,57.8,39.3,30.26,North,8,1.0,3.0,50,0.00,,,0.00,Wunderground v.1.15,2013-12-27 21:51:00,
2013-12-27 15:56:00,57.7,39.7,30.26,NNE,23,5.0,5.0,51,0.00,,,0.00,Wunderground v.1.15,2013-12-27 21:56:00,
2013-12-27 16:01:00,57.5,39.5,30.27,NE,56,2.0,6.0,51,0.00,,,0.00,Wunderground v.1.15,2013-12-27 22:01:00,
2013-12-27 16:06:00,57.5,40.0,30.27,North,352,1.0,7.0,52,0.00,,,0.00,Wunderground v.1.15,2013-12-27 22:06:00,
2013-12-27 16:11:00,57.3,39.8,30.27,NE,53,0.0,3.0,52,0.00,,,0.00,Wunderground v.1.15,2013-12-27 22:11:00,
2013-12-27 16:16:00,57.1,39.6,30.27,North,352,3.0,5.0,52,0.00,,,0.00,Wunderground v.1.15,2013-12-27 22:16:00,
2013-12-27 16:21:00,56.9,39.9,30.28,North,358,2.0,5.0,53,0.00,,,0.00,Wunderground v.1.15,2013-12-27 22:21:00,
2013-12-27 16:26:00,56.7,39.7,30.28,NE,51,0.0,5.0,53,0.00,,,0.00,Wunderground v.1.15,2013-12-27 22:26:00,
2013-12-27 16:31:00,56.6,39.7,30.28,NNW,338,1.0,3.0,53,0.00,,,0.00,Wunderground v.1.15,2013-12-27 22:31:00,
2013-12-27 16:36:00,56.5,40.0,30.28,NE,39,1.0,5.0,54,0.00,,,0.00,Wunderground v.1.15,2013-12-27 22:36:00,
2013-12-27 16:41:00,56.3,39.9,30.29,NNW,342,1.0,2.0,54,0.00,,,0.00,Wunderground v.1.15,2013-12-27 22:41:00,
2013-12-27 16:46:00,56.2,40.2,30.29,NNW,330,0.0,3.0,55,0.00,,,0.00,Wunderground v.1.15,2013-12-27 22:46:00,
2013-12-27 16:51:00,56.1,40.1,30.30,NNE,26,0.0,2.0,55,0.00,,,0.00,Wunderground v.1.15,2013-12-27 22:51:00,
2013-12-27 16:57:00,55.9,40.4,30.30,North,4,0.0,2.0,56,0.00,,,0.00,Wunderground v.1.15,2013-12-27 22:57:00,
2013-12-27 17:02:00,55.8,40.8,30.31,NNW,348,1.0,1.0,57,0.00,,,0.00,Wunderground v.1.15,2013-12-27 23:02:00,
2013-12-27 17:07:00,55.5,41.0,30.31,NNW,328,0.0,5.0,58,0.00,,,0.00,Wunderground v.1.15,2013-12-27 23:07:00,
2013-12-27 17:12:00,55.4,40.4,30.30,NNW,328,2.0,2.0,57,0.00,,,0.00,Wunderground v.1.15,2013-12-27 23:12:00,
2013-12-27 17:17:00,55.4,40.4,30.29,NW,321,0.0,4.0,57,0.00,,,0.00,Wunderground v.1.15,2013-12-27 23:17:00,
2013-12-27 17:22:00,55.3,40.8,30.29,NNE,22,2.0,4.0,58,0.00,,,0.00,Wunderground v.1.15,2013-12-27 23:22:00,
2013-12-27 17:27:00,55.1,40.6,30.29,NNE,27,2.0,4.0,58,0.00,,,0.00,Wunderground v.1.15,2013-12-27 23:27:00,
2013-12-27 17:32:00,55.0,40.9,30.29,NW,307,1.0,2.0,59,0.00,,,0.00,Wunderground v.1.15,2013-12-27 23:32:00,
2013-12-27 17:37:00,54.9,40.8,30.29,NNE,15,4.0,6.0,59,0.00,,,0.00,Wunderground v.1.15,2013-12-27 23:37:00,
2013-12-27 17:42:00,54.8,40.7,30.29,North,350,1.0,3.0,59,0.00,,,0.00,Wunderground v.1.15,2013-12-27 23:42:00,
2013-12-27 17:47:00,54.7,40.6,30.29,NNW,341,2.0,6.0,59,0.00,,,0.00,Wunderground v.1.15,2013-12-27 23:47:00,
2013-12-27 17:52:00,54.7,40.6,30.29,NNW,340,2.0,3.0,59,0.00,,,0.00,Wunderground v.1.15,2013-12-27 23:52:00,
2013-12-27 17:57:00,54.6,40.1,30.29,North,8,3.0,6.0,58,0.00,,,0.00,Wunderground v.1.15,2013-12-27 23:57:00,
2013-12-27 18:02:00,54.6,40.1,30.29,NNE,20,3.0,3.0,58,0.00,,,0.00,Wunderground v.1.15,2013-12-28 00:02:00,
2013-12-27 18:07:00,54.5,39.6,30.30,North,6,2.0,4.0,57,0.00,,,0.00,Wunderground v.1.15,2013-12-28 00:07:00,
2013-12-27 18:12:00,54.4,39.5,30.29,NNW,328,2.0,4.0,57,0.00,,,0.00,Wunderground v.1.15,2013-12-28 00:12:00,
2013-12-27 18:17:00,54.4,39.0,30.29,North,11,3.0,7.0,56,0.00,,,0.00,Wunderground v.1.15,2013-12-28 00:17:00,
2013-12-27 18:22:00,54.4,39.5,30.30,NNW,332,2.0,4.0,57,0.00,,,0.00,Wunderground v.1.15,2013-12-28 00:22:00,
2013-12-27 18:27:00,54.3,39.4,30.31,North,349,2.0,4.0,57,0.00,,,0.00,Wunderground v.1.15,2013-12-28 00:27:00,
2013-12-27 18:32:00,54.2,39.7,30.31,NNE,26,4.0,4.0,58,0.00,,,0.00,Wunderground v.1.15,2013-12-28 00:32:00,
2013-12-27 18:37:00,54.1,39.6,30.31,NNW,328,2.0,5.0,58,0.00,,,0.00,Wunderground v.1.15,2013-12-28 00:37:00,
2013-12-27 18:42:00,54.0,39.5,30.30,NNW,342,2.0,3.0,58,0.00,,,0.00,Wunderground v.1.15,2013-12-28 00:42:00,
2013-12-27 18:47:00,54.0,39.5,30.30,NNW,334,1.0,6.0,58,0.00,,,0.00,Wunderground v.1.15,2013-12-28 00:47:00,
2013-12-27 18:52:00,54.0,40.0,30.30,NNW,348,3.0,6.0,59,0.00,,,0.00,Wunderground v.1.15,2013-12-28 00:52:00,
2013-12-27 18:57:00,53.9,39.9,30.30,NE,45,6.0,6.0,59,0.00,,,0.00,Wunderground v.1.15,2013-12-28 00:57:00,
2013-12-27 19:02:00,53.8,40.2,30.30,North,352,2.0,4.0,60,0.00,,,0.00,Wunderground v.1.15,2013-12-28 01:02:00,
2013-12-27 19:06:00,53.6,40.5,30.30,North,360,2.0,6.0,61,0.00,,,0.00,Wunderground v.1.15,2013-12-28 01:06:00,
2013-12-27 19:11:00,53.4,40.3,30.30,NE,38,1.0,7.0,61,0.00,,,0.00,Wunderground v.1.15,2013-12-28 01:11:00,
2013-12-27 19:16:00,53.3,40.2,30.30,NNE,15,3.0,7.0,61,0.00,,,0.00,Wunderground v.1.15,2013-12-28 01:16:00,
2013-12-27 19:21:00,53.2,40.5,30.30,NE,47,2.0,3.0,62,0.00,,,0.00,Wunderground v.1.15,2013-12-28 01:21:00,
2013-12-27 19:26:00,53.1,40.4,30.30,NNW,340,2.0,6.0,62,0.00,,,0.00,Wunderground v.1.15,2013-12-28 01:26:00,
2013-12-27 19:31:00,53.1,39.6,30.30,North,4,1.0,5.0,60,0.00,,,0.00,Wunderground v.1.15,2013-12-28 01:31:00,
2013-12-27 19:36:00,53.1,39.6,30.30,NNE,15,1.0,5.0,60,0.00,,,0.00,Wunderground v.1.15,2013-12-28 01:36:00,
2013-12-27 19:41:00,53.2,39.2,30.30,North,11,2.0,2.0,59,0.00,,,0.00,Wunderground v.1.15,2013-12-28 01:41:00,
2013-12-27 19:46:00,53.1,39.1,30.30,NNW,328,3.0,4.0,59,0.00,,,0.00,Wunderground v.1.15,2013-12-28 01:46:00,
2013-12-27 19:51:00,53.1,38.7,30.30,NNE,13,2.0,3.0,58,0.00,,,0.00,Wunderground v.1.15,2013-12-28 01:51:00,
2013-12-27 19:56:00,53.1,38.7,30.30,NNW,342,2.0,6.0,58,0.00,,,0.00,Wunderground v.1.15,2013-12-28 01:56:00,
2013-12-27 20:01:00,53.2,38.8,30.30,North,11,1.0,3.0,58,0.00,,,0.00,Wunderground v.1.15,2013-12-28 02:01:00,
2013-12-27 20:06:00,53.1,38.3,30.30,ENE,61,2.0,7.0,57,0.00,,,0.00,Wunderground v.1.15,2013-12-28 02:06:00,
2013-12-27 20:11:00,53.0,38.2,30.30,NNE,22,4.0,4.0,57,0.00,,,0.00,Wunderground v.1.15,2013-12-28 02:11:00,
2013-12-27 20:16:00,53.0,38.2,30.30,North,352,4.0,7.0,57,0.00,,,0.00,Wunderground v.1.15,2013-12-28 02:16:00,
2013-12-27 20:21:00,52.9,38.1,30.29,North,360,2.0,4.0,57,0.00,,,0.00,Wunderground v.1.15,2013-12-28 02:21:00,
2013-12-27 20:26:00,52.8,38.4,30.29,North,356,4.0,6.0,58,0.00,,,0.00,Wunderground v.1.15,2013-12-28 02:26:00,
2013-12-27 20:31:00,52.7,38.3,30.29,NNW,342,1.0,3.0,58,0.00,,,0.00,Wunderground v.1.15,2013-12-28 02:31:00,
2013-12-27 20:36:00,52.6,38.7,30.29,NNE,25,2.0,4.0,59,0.00,,,0.00,Wunderground v.1.15,2013-12-28 02:36:00,
2013-12-27 20:41:00,52.5,39.0,30.28,North,357,2.0,6.0,60,0.00,,,0.00,Wunderground v.1.15,2013-12-28 02:41:00,
2013-12-27 20:46:00,52.3,38.8,30.28,NE,50,2.0,6.0,60,0.00,,,0.00,Wunderground v.1.15,2013-12-28 02:46:00,
2013-12-27 20:51:00,52.1,38.6,30.27,ENE,73,4.0,6.0,60,0.00,,,0.00,Wunderground v.1.15,2013-12-28 02:51:00,
2013-12-27 20:56:00,52.1,38.6,30.27,NE,43,1.0,7.0,60,0.00,,,0.00,Wunderground v.1.15,2013-12-28 02:56:00,
2013-12-27 21:01:00,52.1,38.6,30.27,North,350,4.0,7.0,60,0.00,,,0.00,Wunderground v.1.15,2013-12-28 03:01:00,
2013-12-27 21:06:00,52.1,38.6,30.28,NE,44,1.0,7.0,60,0.00,,,0.00,Wunderground v.1.15,2013-12-28 03:06:00,
2013-12-27 21:11:00,52.1,38.6,30.28,NNE,17,3.0,3.0,60,0.00,,,0.00,Wunderground v.1.15,2013-12-28 03:11:00,
2013-12-27 21:16:00,52.1,39.1,30.28,NE,56,4.0,5.0,61,0.00,,,0.00,Wunderground v.1.15,2013-12-28 03:16:00,
2013-12-27 21:21:00,52.0,38.5,30.28,NE,54,3.0,4.0,60,0.00,,,0.00,Wunderground v.1.15,2013-12-28 03:21:00,
2013-12-27 21:26:00,52.0,38.5,30.27,ENE,61,3.0,5.0,60,0.00,,,0.00,Wunderground v.1.15,2013-12-28 03:26:00,
2013-12-27 21:31:00,52.0,38.5,30.26,NE,48,5.0,6.0,60,0.00,,,0.00,Wunderground v.1.15,2013-12-28 03:31:00,
2013-12-27 21:36:00,52.0,38.5,30.26,North,8,5.0,6.0,60,0.00,,,0.00,Wunderground v.1.15,2013-12-28 03:36:00,
2013-12-27 21:41:00,51.8,38.8,30.26,NE,36,4.0,5.0,61,0.00,,,0.00,Wunderground v.1.15,2013-12-28 03:41:00,
2013-12-27 21:46:00,51.9,38.9,30.26,NNE,20,3.0,7.0,61,0.00,,,0.00,Wunderground v.1.15,2013-12-28 03:46:00,
2013-12-27 21:51:00,51.8,38.8,30.26,SE,142,1.0,3.0,61,0.00,,,0.00,Wunderground v.1.15,2013-12-28 03:51:00,
2013-12-27 21:56:00,51.9,38.0,30.26,NE,46,1.0,6.0,59,0.00,,,0.00,Wunderground v.1.15,2013-12-28 03:56:00,
2013-12-27 22:01:00,52.0,38.1,30.27,ENE,57,1.0,3.0,59,0.00,,,0.00,Wunderground v.1.15,2013-12-28 04:01:00,
2013-12-27 22:06:00,52.1,37.8,30.27,North,11,6.0,6.0,58,0.00,,,0.00,Wunderground v.1.15,2013-12-28 04:06:00,
2013-12-27 22:11:00,52.2,37.9,30.27,NE,41,3.0,5.0,58,0.00,,,0.00,Wunderground v.1.15,2013-12-28 04:11:00,
2013-12-27 22:16:00,52.2,37.9,30.27,NE,53,2.0,7.0,58,0.00,,,0.00,Wunderground v.1.15,2013-12-28 04:16:00,
2013-12-27 22:21:00,52.2,37.4,30.26,NE,50,7.0,8.0,57,0.00,,,0.00,Wunderground v.1.15,2013-12-28 04:21:00,
2013-12-27 22:26:00,52.2,37.4,30.26,East,80,4.0,8.0,57,0.00,,,0.00,Wunderground v.1.15,2013-12-28 04:26:00,
2013-12-27 22:31:00,52.2,37.4,30.26,NE,52,4.0,7.0,57,0.00,,,0.00,Wunderground v.1.15,2013-12-28 04:31:00,
2013-12-27 22:36:00,52.2,37.4,30.26,NNE,12,2.0,8.0,57,0.00,,,0.00,Wunderground v.1.15,2013-12-28 04:36:00,
2013-12-27 22:41:00,52.2,37.4,30.26,NNE,33,7.0,7.0,57,0.00,,,0.00,Wunderground v.1.15,2013-12-28 04:41:00,
2013-12-27 22:46:00,52.1,37.8,30.26,NW,318,1.0,7.0,58,0.00,,,0.00,Wunderground v.1.15,2013-12-28 04:46:00,
2013-12-27 22:51:00,52.1,37.3,30.26,North,4,2.0,5.0,57,0.00,,,0.00,Wunderground v.1.15,2013-12-28 04:51:00,
2013-12-27 22:56:00,52.1,37.3,30.27,ENE,60,0.0,6.0,57,0.00,,,0.00,Wunderground v.1.15,2013-12-28 04:56:00,
2013-12-27 23:01:00,52.1,37.3,30.26,NE,36,2.0,4.0,57,0.00,,,0.00,Wunderground v.1.15,2013-12-28 05:01:00,
2013-12-27 23:06:00,52.2,37.4,30.26,NW,321,2.0,6.0,57,0.00,,,0.00,Wunderground v.1.15,2013-12-28 05:06:00,
2013-12-27 23:11:00,52.2,37.4,30.26,East,94,1.0,6.0,57,0.00,,,0.00,Wunderground v.1.15,2013-12-28 05:11:00,
2013-12-27 23:16:00,52.2,37.4,30.26,NE,43,3.0,6.0,57,0.00,,,0.00,Wunderground v.1.15,2013-12-28 05:16:00,
2013-12-27 23:21:00,52.2,37.4,30.26,NNE,26,4.0,4.0,57,0.00,,,0.00,Wunderground v.1.15,2013-12-28 05:21:00,
2013-12-27 23:26:00,52.2,37.4,30.26,NNE,18,2.0,6.0,57,0.00,,,0.00,Wunderground v.1.15,2013-12-28 05:26:00,
2013-12-27 23:31:00,52.3,37.5,30.26,NNE,33,6.0,6.0,57,0.00,,,0.00,Wunderground v.1.15,2013-12-28 05:31:00,
2013-12-27 23:36:00,52.3,37.5,30.25,NNE,27,3.0,6.0,57,0.00,,,0.00,Wunderground v.1.15,2013-12-28 05:36:00,
2013-12-27 23:41:00,52.3,37.5,30.25,NE,39,2.0,4.0,57,0.00,,,0.00,Wunderground v.1.15,2013-12-28 05:41:00,
2013-12-27 23:46:00,52.4,37.2,30.25,NNW,348,2.0,7.0,56,0.00,,,0.00,Wunderground v.1.15,2013-12-28 05:46:00,
2013-12-27 23:51:00,52.4,37.6,30.25,North,350,2.0,2.0,57,0.00,,,0.00,Wunderground v.1.15,2013-12-28 05:51:00,
2013-12-27 23:56:00,52.3,37.5,30.25,NE,35,2.0,3.0,57,0.00,,,0.00,Wunderground v.1.15,2013-12-28 05:56:00,